Flag for Australia Weather past 2 weeks in The Settlement, Christmas Island, Australia

Now
82 °F

Partly sunny.


Feels Like: 89 °F
Forecast: 75 / 83 °F
Wind: 9 mph from East

Location: Christmas Island Aerodrome

Current Time: Mar 27, 2015 at 11:05:52 AM

Latest Report: Mar 27, 2015 at 10:00 AM


Visibility: N/A

Pressure: 30.01 "Hg

Humidity: 79%

Dew point: 75 °F

Location of The SettlementLocation

Historic Weather in The Settlement — Graph

°F

The Settlement temperature yesterday

Maximum temperature yesterday: 84 °F (at 12:00 PM)
Minimum temperature yesterday: 75 °F (at 12:00 AM)
Average temperature yesterday: 78 °F

Past Weeks' High & Low Weather Summary

 TemperatureHumidityPressure
High84 °F (Mar 14, 1:00 PM)100% (Mar 12, 11:00 AM)30.01 "Hg (Mar 12, 11:00 AM)
Low73 °F (Mar 12, 10:00 AM)62% (Mar 15, 12:00 PM)29.83 "Hg (Mar 17, 4:00 PM)
Average78 °F88%29.93 "Hg
* Reported Mar 12 10:00 AM — Mar 27 10:00 AM, The Settlement, Weather by CustomWeather, © 2015

Note: Actual official high and low records may vary slightly from our data, if they occured in-between our weather recording intervals... More about our weather records

Advertising

The Settlement weather history for previous 24 hours

 ConditionsComfort  
Time TempWeatherWind HumidityBarometerVisibility
10:00 AM
Fri, Mar 27
82 °FPartly sunny.9 mph79%30.01 "HgN/A
9:00 AM81 °FLight rain. Broken clouds.7 mph89%29.98 "HgN/A
8:04 AM82 °FBroken clouds.8 mph79%29.98 "HgN/A
7:00 AM79 °FPartly sunny.8 mph89%29.95 "HgN/A
6:00 AM79 °FPassing clouds.7 mph89%29.95 "HgN/A
5:00 AM79 °FOvercast.7 mph89%29.95 "HgN/A
4:00 AM79 °FPassing clouds.8 mph89%29.95 "HgN/A
3:00 AM79 °FPartly cloudy.7 mph89%29.95 "HgN/A
2:00 AM79 °FPartly cloudy.7 mph89%29.95 "HgN/A
1:00 AM79 °FMostly cloudy.8 mph94%29.98 "HgN/A
12:00 AM79 °FPassing clouds.8 mph89%29.98 "HgN/A
11:00 PM
Thu, Mar 26
77 °FPassing clouds.7 mph94%30.01 "HgN/A
10:30 PM77 °FPartly cloudy.6 mph94%30.01 "HgN/A
10:00 PM77 °FPartly cloudy.7 mph94%30.01 "Hg6 mi
9:00 PM79 °FPassing clouds.6 mph89%29.98 "HgN/A
8:00 PM77 °FPassing clouds.3 mph94%29.98 "HgN/A
7:00 PM77 °FPartly cloudy.6 mph94%29.95 "HgN/A
6:00 PM79 °FPartly sunny.8 mph89%29.92 "HgN/A
5:00 PM79 °FBroken clouds.8 mph94%29.89 "HgN/A
4:00 PM82 °FSunny.8 mph74%29.89 "HgN/A
3:00 PM82 °FSunny.7 mph74%29.89 "HgN/A
2:00 PM82 °FSunny.7 mph70%29.92 "HgN/A
1:00 PM82 °FSunny.7 mph66%29.95 "HgN/A
12:00 PM84 °FSunny.7 mph62%29.98 "HgN/A
11:00 AM82 °FSunny.5 mph79%29.98 "HgN/A
Weather by CustomWeather, © 2015

See weather overviewHow to use our weather pages